N216TB TJPS-TIST

Flight info

Callsign N216TB
Flight time 0h 40m
Altitude 7000
Route DCT CLAYO DCT SANLO DCT LODZI DCT KUTHO DCT JAQYY DCT
Aircraft K100/L-L/C

Departure

Time 2026-05-04 18:42
Airport Mercedita International Airport (TJPS)

Arrival

Time 2026-05-04 19:22
Airport Cyril E. King Airport (TIST)
Time Latitude Longitude Altitude Speed Heading
2026-05-04 18:34 18.01009 -66.56301 36 ft 0 kts 319°
2026-05-04 18:38 18.01010 -66.56302 36 ft 1 kts 308°
2026-05-04 18:39 18.01001 -66.56315 36 ft 4 kts 204°
2026-05-04 18:39 18.00971 -66.56345 36 ft 8 kts 252°
2026-05-04 18:39 18.00989 -66.56424 36 ft 15 kts 290°
2026-05-04 18:39 18.01027 -66.56546 37 ft 20 kts 288°
2026-05-04 18:40 18.01076 -66.56703 36 ft 25 kts 288°
2026-05-04 18:40 18.01094 -66.56799 36 ft 5 kts 268°
2026-05-04 18:40 18.01069 -66.56846 37 ft 9 kts 197°
2026-05-04 18:40 18.01001 -66.56835 37 ft 9 kts 131°
2026-05-04 18:41 18.00988 -66.56808 37 ft 0 kts 108°
2026-05-04 18:41 18.00972 -66.56760 37 ft 32 kts 106°
2026-05-04 18:41 18.00815 -66.56320 102 ft 86 kts 120°
2026-05-04 18:41 18.00672 -66.55622 408 ft 105 kts 109°
2026-05-04 18:42 18.00549 -66.54835 837 ft 113 kts 105°
2026-05-04 18:42 18.00873 -66.54038 1251 ft 138 kts 41°
2026-05-04 18:42 18.01728 -66.53532 1692 ft 141 kts 44°
2026-05-04 18:42 18.02063 -66.53196 1899 ft 139 kts 61°
2026-05-04 18:43 18.02414 -66.52501 2266 ft 139 kts 74°
2026-05-04 18:44 18.02813 -66.51552 2682 ft 141 kts 72°
2026-05-04 18:44 18.03080 -66.50941 3000 ft 140 kts 74°
2026-05-04 18:44 18.03594 -66.49687 3570 ft 137 kts 73°
2026-05-04 18:44 18.03960 -66.48775 3977 ft 136 kts 73°
2026-05-04 18:45 18.04316 -66.47895 4424 ft 128 kts 73°
2026-05-04 18:45 18.04656 -66.47024 4866 ft 129 kts 75°
2026-05-04 18:45 18.05009 -66.46144 5288 ft 130 kts 73°
2026-05-04 18:45 18.05360 -66.45276 5705 ft 128 kts 73°
2026-05-04 18:46 18.05696 -66.44437 6152 ft 124 kts 75°
2026-05-04 18:46 18.05943 -66.43573 6581 ft 125 kts 82°
2026-05-04 18:46 18.06187 -66.42705 6973 ft 125 kts 80°
2026-05-04 18:46 18.06448 -66.41727 6997 ft 150 kts 80°
2026-05-04 18:47 18.06751 -66.40648 7002 ft 162 kts 78°
2026-05-04 18:47 18.07086 -66.39505 7006 ft 166 kts 78°
2026-05-04 18:47 18.07421 -66.38335 7010 ft 168 kts 78°
2026-05-04 18:47 18.07756 -66.37153 7010 ft 169 kts 77°
2026-05-04 18:48 18.08091 -66.35973 7014 ft 169 kts 78°
2026-05-04 18:48 18.08429 -66.34787 7009 ft 170 kts 78°
2026-05-04 18:48 18.08765 -66.33597 7007 ft 169 kts 78°
2026-05-04 18:48 18.09104 -66.32407 7003 ft 170 kts 79°
2026-05-04 18:49 18.09438 -66.31232 7002 ft 170 kts 78°
2026-05-04 18:49 18.09773 -66.30048 7002 ft 168 kts 78°
2026-05-04 18:49 18.10110 -66.28867 7004 ft 167 kts 78°
2026-05-04 18:49 18.10440 -66.27688 7015 ft 170 kts 78°
2026-05-04 18:50 18.10780 -66.26489 7009 ft 170 kts 78°
2026-05-04 18:50 18.11116 -66.25306 7006 ft 169 kts 78°
2026-05-04 18:50 18.11448 -66.24128 7005 ft 167 kts 78°
2026-05-04 18:50 18.11779 -66.22958 7011 ft 168 kts 78°
2026-05-04 18:51 18.12113 -66.21774 7002 ft 168 kts 78°
2026-05-04 18:51 18.12439 -66.20616 7002 ft 166 kts 78°
2026-05-04 18:51 18.12769 -66.19450 7004 ft 167 kts 79°
2026-05-04 18:51 18.13098 -66.18281 7001 ft 167 kts 78°
2026-05-04 18:52 18.13429 -66.17109 7002 ft 168 kts 78°
2026-05-04 18:52 18.13760 -66.15928 7004 ft 168 kts 78°
2026-05-04 18:52 18.13838 -66.15650 6997 ft 168 kts 78°
2026-05-04 18:52 18.14145 -66.14568 7004 ft 167 kts 79°
2026-05-04 18:53 18.14342 -66.13876 7002 ft 168 kts 77°
2026-05-04 18:53 18.14538 -66.13188 7002 ft 169 kts 78°
2026-05-04 18:53 18.14674 -66.12704 7003 ft 169 kts 78°
2026-05-04 18:53 18.14777 -66.12335 6999 ft 168 kts 79°
2026-05-04 18:54 18.15109 -66.11157 6999 ft 168 kts 78°
2026-05-04 18:54 18.15155 -66.10996 7001 ft 168 kts 78°
2026-05-04 18:54 18.15479 -66.09838 7007 ft 169 kts 79°
2026-05-04 18:54 18.15812 -66.08656 6992 ft 167 kts 78°
2026-05-04 18:55 18.16140 -66.07492 7001 ft 166 kts 78°
2026-05-04 18:55 18.16799 -66.05147 6999 ft 169 kts 78°
2026-05-04 18:55 18.17135 -66.03964 7011 ft 169 kts 78°
2026-05-04 18:56 18.17466 -66.02780 7002 ft 168 kts 79°
2026-05-04 18:56 18.17794 -66.01619 7008 ft 168 kts 79°
2026-05-04 18:56 18.18125 -66.00441 7002 ft 168 kts 78°
2026-05-04 18:56 18.18458 -65.99255 7009 ft 170 kts 78°
2026-05-04 18:57 18.18794 -65.98060 7006 ft 171 kts 79°
2026-05-04 18:57 18.19129 -65.96866 7008 ft 170 kts 78°
2026-05-04 18:57 18.19465 -65.95674 7011 ft 170 kts 78°
2026-05-04 18:57 18.19800 -65.94483 7011 ft 170 kts 78°
2026-05-04 18:58 18.20124 -65.93292 7011 ft 169 kts 82°
2026-05-04 18:58 18.20376 -65.92089 7010 ft 168 kts 82°
2026-05-04 18:58 18.20639 -65.90889 7011 ft 168 kts 82°
2026-05-04 18:58 18.20896 -65.89705 7013 ft 169 kts 82°
2026-05-04 18:59 18.21156 -65.88504 7014 ft 168 kts 82°
2026-05-04 18:59 18.21415 -65.87307 7010 ft 168 kts 82°
2026-05-04 18:59 18.21674 -65.86110 7014 ft 168 kts 82°
2026-05-04 18:59 18.21933 -65.84912 7015 ft 168 kts 81°
2026-05-04 19:00 18.22191 -65.83721 7016 ft 166 kts 82°
2026-05-04 19:00 18.22450 -65.82530 7019 ft 168 kts 82°
2026-05-04 19:00 18.22707 -65.81325 7014 ft 169 kts 81°
2026-05-04 19:00 18.22968 -65.80121 7018 ft 169 kts 82°
2026-05-04 19:01 18.23224 -65.78927 7018 ft 170 kts 82°
2026-05-04 19:01 18.23487 -65.77711 7009 ft 169 kts 82°
2026-05-04 19:01 18.23745 -65.76512 7018 ft 168 kts 81°
2026-05-04 19:01 18.24003 -65.75315 7015 ft 168 kts 82°
2026-05-04 19:02 18.24132 -65.74722 7020 ft 168 kts 82°
2026-05-04 19:02 18.24304 -65.73916 7019 ft 169 kts 82°
2026-05-04 19:02 18.24426 -65.73346 7019 ft 169 kts 82°
2026-05-04 19:02 18.24639 -65.72355 7016 ft 168 kts 83°
2026-05-04 19:03 18.24894 -65.71174 7023 ft 167 kts 82°
2026-05-04 19:03 18.25152 -65.69983 7024 ft 167 kts 81°
2026-05-04 19:03 18.25407 -65.68792 7027 ft 168 kts 83°
2026-05-04 19:03 18.25662 -65.67590 7023 ft 168 kts 82°
2026-05-04 19:04 18.25925 -65.66390 7030 ft 168 kts 83°
2026-05-04 19:04 18.26183 -65.65184 7028 ft 169 kts 83°
2026-05-04 19:04 18.26442 -65.63973 7028 ft 170 kts 82°
2026-05-04 19:04 18.26700 -65.62771 7020 ft 168 kts 82°
2026-05-04 19:05 18.26960 -65.61574 7019 ft 168 kts 82°
2026-05-04 19:05 18.27209 -65.60396 7022 ft 167 kts 84°
2026-05-04 19:05 18.27371 -65.59196 7020 ft 166 kts 87°
2026-05-04 19:05 18.27530 -65.57995 7026 ft 166 kts 88°
2026-05-04 19:06 18.27692 -65.56791 7025 ft 167 kts 87°
2026-05-04 19:06 18.27854 -65.55582 7024 ft 167 kts 88°
2026-05-04 19:06 18.28015 -65.54376 7027 ft 167 kts 87°
2026-05-04 19:06 18.28176 -65.53166 7021 ft 167 kts 87°
2026-05-04 19:07 18.28337 -65.51955 7022 ft 167 kts 86°
2026-05-04 19:07 18.28499 -65.50740 6928 ft 171 kts 87°
2026-05-04 19:07 18.28659 -65.49533 6740 ft 167 kts 86°
2026-05-04 19:07 18.28822 -65.48330 6547 ft 165 kts 86°
2026-05-04 19:08 18.28981 -65.47136 6357 ft 164 kts 86°
2026-05-04 19:08 18.29138 -65.45951 6159 ft 164 kts 86°
2026-05-04 19:08 18.29296 -65.44764 5955 ft 164 kts 86°
2026-05-04 19:08 18.29453 -65.43579 5767 ft 163 kts 86°
2026-05-04 19:09 18.29610 -65.42398 5569 ft 163 kts 86°
2026-05-04 19:09 18.29767 -65.41219 5378 ft 163 kts 86°
2026-05-04 19:09 18.29924 -65.40033 5188 ft 164 kts 86°
2026-05-04 19:09 18.30079 -65.38861 4995 ft 163 kts 86°
2026-05-04 19:10 18.30235 -65.37686 4802 ft 162 kts 86°
2026-05-04 19:10 18.30392 -65.36511 4605 ft 163 kts 86°
2026-05-04 19:10 18.30549 -65.35329 4373 ft 164 kts 86°
2026-05-04 19:10 18.30705 -65.34142 4009 ft 163 kts 86°
2026-05-04 19:11 18.30863 -65.32957 3651 ft 164 kts 86°
2026-05-04 19:11 18.31021 -65.31767 3289 ft 164 kts 86°
2026-05-04 19:11 18.31179 -65.30579 2933 ft 165 kts 85°
2026-05-04 19:11 18.31332 -65.29426 2815 ft 156 kts 85°
2026-05-04 19:12 18.31478 -65.28338 2801 ft 145 kts 87°
2026-05-04 19:12 18.31736 -65.26375 2807 ft 128 kts 86°
2026-05-04 19:12 18.31862 -65.25445 2809 ft 129 kts 87°
2026-05-04 19:13 18.31981 -65.24512 2802 ft 127 kts 87°
2026-05-04 19:13 18.32101 -65.23597 2805 ft 126 kts 86°
2026-05-04 19:13 18.32223 -65.22692 2803 ft 124 kts 87°
2026-05-04 19:13 18.32340 -65.21789 2800 ft 124 kts 85°
2026-05-04 19:14 18.32458 -65.20899 2801 ft 124 kts 86°
2026-05-04 19:14 18.32576 -65.20005 2799 ft 122 kts 86°
2026-05-04 19:14 18.32694 -65.19122 2800 ft 122 kts 87°
2026-05-04 19:14 18.32804 -65.18245 2811 ft 119 kts 85°
2026-05-04 19:15 18.32860 -65.17398 2814 ft 114 kts 98°
2026-05-04 19:15 18.32834 -65.16652 2812 ft 113 kts 94°
2026-05-04 19:15 18.32833 -65.16587 2813 ft 113 kts 94°
2026-05-04 19:15 18.32838 -65.15772 2810 ft 113 kts 94°
2026-05-04 19:16 18.32860 -65.14949 2811 ft 112 kts 91°
2026-05-04 19:16 18.32888 -65.14143 2813 ft 106 kts 93°
2026-05-04 19:16 18.32919 -65.13396 2744 ft 101 kts 90°
2026-05-04 19:16 18.32957 -65.12655 2622 ft 102 kts 92°
2026-05-04 19:17 18.32992 -65.11911 2479 ft 101 kts 92°
2026-05-04 19:17 18.33027 -65.11201 2365 ft 90 kts 92°
2026-05-04 19:17 18.33061 -65.10556 2247 ft 88 kts 91°
2026-05-04 19:17 18.33092 -65.09908 2137 ft 90 kts 91°
2026-05-04 19:18 18.33124 -65.09255 2013 ft 90 kts 90°
2026-05-04 19:18 18.33156 -65.08605 1902 ft 88 kts 92°
2026-05-04 19:18 18.33188 -65.07955 1790 ft 90 kts 91°
2026-05-04 19:18 18.33220 -65.07295 1669 ft 91 kts 89°
2026-05-04 19:19 18.33258 -65.06632 1544 ft 92 kts 91°
2026-05-04 19:19 18.33291 -65.05965 1428 ft 91 kts 91°
2026-05-04 19:19 18.33323 -65.05290 1313 ft 95 kts 92°
2026-05-04 19:19 18.33356 -65.04589 1186 ft 96 kts 89°
2026-05-04 19:20 18.33393 -65.03889 1060 ft 95 kts 91°
2026-05-04 19:20 18.33427 -65.03212 943 ft 90 kts 92°
2026-05-04 19:20 18.33460 -65.02551 822 ft 93 kts 90°
2026-05-04 19:20 18.33495 -65.01873 766 ft 91 kts 91°
2026-05-04 19:21 18.33519 -65.01195 667 ft 97 kts 89°
2026-05-04 19:21 18.33617 -65.00531 538 ft 89 kts 90°
2026-05-04 19:21 18.33695 -64.99879 351 ft 88 kts 96°
2026-05-04 19:21 18.33701 -64.99276 271 ft 79 kts 112°
2026-05-04 19:22 18.33671 -64.98688 158 ft 81 kts 90°
2026-05-04 19:22 18.33697 -64.98178 37 ft 58 kts 97°
2026-05-04 19:22 18.33710 -64.97834 29 ft 35 kts 115°
2026-05-04 19:22 18.33715 -64.97626 28 ft 26 kts 84°
2026-05-04 19:23 18.33722 -64.97491 27 ft 12 kts 76°
2026-05-04 19:23 18.33788 -64.97418 25 ft 16 kts 44°
2026-05-04 19:23 18.33814 -64.97331 24 ft 12 kts 91°
2026-05-04 19:23 18.33813 -64.97239 23 ft 13 kts 89°
2026-05-04 19:24 18.33817 -64.97189 22 ft 14 kts 83°
2026-05-04 19:24 18.33818 -64.97160 22 ft 14 kts 87°
2026-05-04 19:25 18.33820 -64.97057 21 ft 14 kts 92°
2026-05-04 19:25 18.33820 -64.97040 21 ft 14 kts 88°
2026-05-04 19:25 18.33827 -64.96955 20 ft 15 kts 85°
2026-05-04 19:25 18.33826 -64.96847 18 ft 15 kts 93°
2026-05-04 19:26 18.33833 -64.96744 17 ft 9 kts 88°
2026-05-04 19:26 18.33849 -64.96696 17 ft 5 kts 26°
2026-05-04 19:26 18.33902 -64.96696 17 ft 7 kts 324°
2026-05-04 19:26 18.33898 -64.96727 17 ft 6 kts 195°
2026-05-04 19:27 18.33894 -64.96727 17 ft 1 kts 178°
2026-05-04 19:27 18.33892 -64.96728 17 ft 0 kts 186°